Retour au catalogue

SL-14 DEB

ActifPO
NORAD 45310·DEBRIS·🇷🇺 Russia

Lancé Aug 15, 1991 depuis Plesetsk Cosmodrome

Loading…

Prochains Passages (prochaines 24 heures)

TLE

FraisSource: Space-Track

Époque: Sep 14, 2026, 02:20 UTC

1 45310U 91056AY  26257.09723557 -.00000067  00000-0 -26072-3 0  9999
2 45310  82.5978 143.7711 0100250 222.5317 136.7999 12.97902541310309

Suivez SL-14 DEB en temps réel avec AllMySat

Download on the App Store